Location: Unspecified
(0.0000°N, 0.0000°E)
Time: 13:32:15
(UTC+00:00)

Explorer 11/Cluster Stage 4 - Visible Passes

Search period start: 22 February 2024 00:00
Search period end: 03 March 2024 00:00
Orbit: 465 x 1224 km, 28.8° (Epoch: 21 February)

Date Brightness Start Highest point End Pass type
(mag) Time Alt. Az. Time Alt. Az. Time Alt. Az.
22 Feb 8.4 20:08:20 10° SSW 20:13:46 27° SSE 20:13:46 27° SSE visible
22 Feb 9.9 21:55:30 10° WSW 21:55:31 10° WSW 21:55:31 10° WSW visible
23 Feb 8.2 19:51:46 10° SSW 19:57:35 30° SSE 19:58:15 29° SE visible
23 Feb 9.6 21:38:59 10° WSW 21:40:01 15° WSW 21:40:01 15° WSW visible
24 Feb 8.1 19:35:14 10° SSW 19:40:58 32° SSE 19:42:48 28° ESE visible
24 Feb 9.2 21:22:31 10° WSW 21:24:33 21° WSW 21:24:33 21° WSW visible
25 Feb 7.9 19:18:43 10° SSW 19:24:21 34° SSE 19:27:24 25° ESE visible
25 Feb 8.7 21:06:04 10° WSW 21:09:09 30° WSW 21:09:09 30° WSW visible
26 Feb 7.7 19:02:13 10° SW 19:07:44 37° SSE 19:12:02 19° E visible
26 Feb 8.2 20:49:40 10° WSW 20:53:48 40° W 20:53:48 40° W visible
27 Feb 7.6 18:45:46 10° SW 18:51:07 40° SSE 18:56:44 13° E visible
27 Feb 7.7 20:33:19 10° WSW 20:38:30 51° WNW 20:38:30 51° WNW visible
28 Feb 8.6 05:47:03 10° NNW 05:51:40 21° NNE 05:55:39 10° ENE visible
28 Feb 7.4 18:29:20 10° SW 18:34:32 44° SSE 18:40:54 10° ENE visible
28 Feb 7.6 20:16:59 10° WSW 20:23:04 50° NNW 20:23:14 50° NNW visible
29 Feb 8.5 05:29:55 10° NNW 05:35:12 25° NNE 05:39:41 10° ENE visible
29 Feb 7.7 20:00:44 10° W 20:06:27 44° NNW 20:07:59 38° N visible
01 Mar 9.6 03:30:10 10° NNE 03:30:10 10° NNE 03:30:24 10° NNE visible
01 Mar 8.3 05:12:50 10° NNW 05:18:41 29° NNE 05:23:38 10° E visible
01 Mar 7.9 19:44:30 10° W 19:49:52 38° NNW 19:52:44 26° NNE visible
02 Mar 9.6 03:14:47 11° NE 03:14:47 11° NE 03:15:13 10° NE visible
02 Mar 8.2 04:56:33 13° NNW 05:02:07 34° NNE 05:07:29 10° E visible
02 Mar 8.1 19:28:20 10° W 19:33:18 32° NNW 19:37:30 17° NNE visible
